Location: Ravensburg
(47.7866°N, 9.6124°E)
Time: 10:08:45
(UTC+02:00)

YUBILEINY - Pass Details

Date: 21 March 2026
Orbit: 1477 x 1509 km, 82.5° (Epoch: 17 April)

Event Time Altitude Azimuth Distance (km) Brightness Sun altitude
Rises 04:47:38 0° 343° (NNW) 4,617 ? -16.5°
Reaches altitude 10° 04:51:06 10° 332° (NNW) 3,630 ? -16.0°
Maximum altitude 04:57:46 26° 281° (WNW) 2,602 ? -14.9°
Enters shadow 05:02:02 17° 243° (WSW) 3,060 ? -14.2°
